This is the latest recevied weather packets stored in our database for station/object 4S6DRJ-13. If no packets are shown the sender has not sent any weather packets the latest 10 day(s).
| Time | Temp. | Humidity | Pressure | Rain* | Wind** | Luminosity | Snow |
|---|---|---|---|---|---|---|---|
| 1787865121 | 27.78° C | 87% | 1008.9 hPa | 0 mm | 1.79 m/s, 209° | 0 W/m² | - |
| 1787865060 | 27.78° C | 87% | 1008.8 hPa | 0 mm | 0.45 m/s, 212° | 0 W/m² | - |
| 1787864999 | 27.78° C | 87% | 1008.9 hPa | 0 mm | 0.89 m/s, 275° | 0 W/m² | - |
| 1787864938 | 27.78° C | 87% | 1008.7 hPa | 0 mm | 2.24 m/s, 259° | 0 W/m² | - |
| 1787864877 | 27.78° C | 87% | 1008.9 hPa | 0 mm | 1.79 m/s, 287° | 0 W/m² | - |
| 1787864817 | 27.78° C | 87% | 1008.6 hPa | 0 mm | 0.89 m/s, 222° | 0 W/m² | - |
| 1787864755 | 27.78° C | 87% | 1008.8 hPa | 0 mm | 0.89 m/s, 231° | 0 W/m² | - |
| 1787864694 | 27.78° C | 87% | 1008.8 hPa | 0 mm | 0.89 m/s, 198° | 0 W/m² | - |
| 1787864633 | 27.78° C | 87% | 1008.9 hPa | 0 mm | 0.89 m/s, 259° | 0 W/m² | - |
| 1787864573 | 27.78° C | 87% | 1008.9 hPa | 0 mm | 0.89 m/s, 211° | 0 W/m² | - |
| 1787864511 | 27.78° C | 87% | 1009 hPa | 0 mm | 1.79 m/s, 226° | 0 W/m² | - |
| 1787864450 | 27.78° C | 87% | 1008.8 hPa | 0 mm | 0.45 m/s, 231° | 0 W/m² | - |
| 1787864390 | 27.78° C | 87% | 1008.9 hPa | 0 mm | 1.79 m/s, 301° | 0 W/m² | - |
| 1787864328 | 27.78° C | 87% | 1008.9 hPa | 0 mm | 1.34 m/s, 208° | 0 W/m² | - |
| 1787864267 | 27.78° C | 87% | 1008.9 hPa | 0 mm | 1.79 m/s, 221° | 0 W/m² | - |
| 1787864207 | 27.78° C | 87% | 1008.8 hPa | 0 mm | 1.34 m/s, 149° | 0 W/m² | - |
| 1787864145 | 27.78° C | 87% | 1008.7 hPa | 0 mm | 0.45 m/s, 93° | 0 W/m² | - |
| 1787864084 | 27.78° C | 87% | 1008.7 hPa | 0 mm | 0.45 m/s, 310° | 0 W/m² | - |
| 1787864026 | 27.78° C | 87% | 1008.7 hPa | 0 mm | 0 m/s | 0 W/m² | - |
| 1787863962 | 27.78° C | 87% | 1008.9 hPa | 0 mm | 1.79 m/s, 254° | 0 W/m² | - |
| 1787863901 | 27.78° C | 87% | 1008.9 hPa | 0 mm | 2.24 m/s, 5° | 0 W/m² | - |
| 1787863840 | 27.78° C | 87% | 1008.8 hPa | 0 mm | 1.34 m/s, 264° | 0 W/m² | - |
| 1787863779 | 27.78° C | 87% | 1008.8 hPa | 0 mm | 2.68 m/s, 225° | 0 W/m² | - |
| 1787863718 | 27.78° C | 87% | 1008.8 hPa | 0 mm | 0.89 m/s, 247° | 0 W/m² | - |
| 1787863657 | 27.78° C | 87% | 1009 hPa | 0 mm | 0.89 m/s, 251° | 0 W/m² | - |
* Rain latest hour (hover to see other rain measurements)
** Current wind speed in m/s (hover to see current wind gust speed)